Weather History for Lancaster, PA

Change the Weather History Date:

Friday, January 28, 2000

  Actual Average Record
Temperature  
Mean Temperature 16 °F -  
Max Temperature 23 °F 38 °F 63 °F (2002)
Min Temperature 9 °F 17 °F -6 °F (1987)
Degree Days  
Heating Degree Days 49    
Moisture  
Dew Point -4 °F    
Average Humidity 44    
Maximum Humidity 64    
Minimum Humidity 29    
Precipitation  
Precipitation 0.00 in - - ()
Sea Level Pressure  
Sea Level Pressure 30.45 in    
Wind  
Wind Speed 12 mph (WNW)    
Max Wind Speed 21 mph    
Max Gust Speed -    
Visibility 10 miles    
Events      
Averages and records for this station are not official NWS values.
T = Trace of Precipitation, MM = Missing Value Source: NWS Daily Summary

Daily Weather History Graph

Daily Weather History Graph

Search for Another Location

Airport:

Trip Planner

Search our weather history database for the weather conditions in past years. The results will help you decide how hot, cold, wet, or windy it might be!

Date:

Astronomy

Jan. 28, 2000 Rise Set
Actual Time 7:17 AM EST 5:18 PM EST
Civil Twilight 6:49 AM EST 5:47 PM EST
Nautical Twilight 6:16 AM EST 6:20 PM EST
Astronomical Twilight 5:44 AM EST 6:52 PM EST
Moon 12:31 AM EST (1/28) 11:44 AM EST (1/28)
Length of Visible Light 10h 58m
Length of Day
10h 00m
Waning Gibbous, 47% of the Moon is Illuminated
Jan 28
Waning Gibbous
Feb 5
New
Feb 12
First Quarter
Feb 19
Full
Feb 26
Last Quarter

Hourly Weather History & Observations

Time (EST) Temp. Windchill Dew Point Humidity Pressure Visibility Wind Dir Wind Speed Gust Speed Precip Events Conditions
12:53 AM 10.0 °F -5.2 °F -2.9 °F 56% 30.35 in 10.0 mi WNW 12.7 mph - N/A   Mostly Cloudy
1:53 AM 10.0 °F -3.7 °F -0.0 °F 64% 30.37 in 10.0 mi NW 10.4 mph - N/A   Mostly Cloudy
2:53 AM 9.0 °F -4.2 °F -2.0 °F 61% 30.38 in 10.0 mi WNW 9.2 mph - N/A   Clear
3:53 AM 10.9 °F -5.4 °F -2.0 °F 56% 30.38 in 10.0 mi NW 15.0 mph - N/A   Clear
4:53 AM 10.9 °F -4.7 °F -2.0 °F 56% 30.39 in 10.0 mi WNW 13.8 mph - N/A   Clear
5:53 AM 10.9 °F -4.1 °F -2.9 °F 54% 30.39 in 10.0 mi NW 12.7 mph - N/A   Clear
6:53 AM 9.0 °F -5.1 °F -2.9 °F 59% 30.40 in 10.0 mi WNW 10.4 mph - N/A   Clear
7:53 AM 10.0 °F -1.9 °F -2.9 °F 56% 30.43 in 10.0 mi NNW 8.1 mph - N/A   Clear
8:53 AM 14.0 °F -0.2 °F -2.9 °F 47% 30.45 in 10.0 mi NW 12.7 mph - N/A   Clear
9:53 AM 16.0 °F 1.1 °F -2.0 °F 45% 30.47 in 10.0 mi NW 15.0 mph - N/A   Clear
10:53 AM 17.1 °F 0.1 °F -0.9 °F 45% 30.47 in 10.0 mi NW 20.7 mph - N/A   Clear
11:53 AM 19.0 °F 5.0 °F -2.0 °F 40% 30.45 in 10.0 mi NW 15.0 mph - N/A   Clear
2:53 PM 23.0 °F 10.1 °F -2.9 °F 32% 30.43 in 10.0 mi NW 15.0 mph - N/A   Clear
3:53 PM 23.0 °F 12.4 °F -2.9 °F 32% 30.44 in 10.0 mi WNW 10.4 mph - N/A   Clear
4:53 PM 21.9 °F 11.0 °F -4.0 °F 32% 30.44 in 10.0 mi WNW 10.4 mph - N/A   Clear
5:53 PM 19.0 °F 6.8 °F -4.0 °F 36% 30.46 in 10.0 mi West 11.5 mph - N/A   Clear
6:53 PM 19.0 °F 9.0 °F -6.0 °F 33% 30.49 in 10.0 mi West 8.1 mph - N/A   Clear
7:53 PM 17.1 °F 10.0 °F -5.1 °F 37% 30.50 in 10.0 mi WSW 4.6 mph - N/A   Clear
8:53 PM 16.0 °F 4.4 °F -6.0 °F 38% 30.50 in 10.0 mi West 9.2 mph - N/A   Clear
9:53 PM 18.0 °F 7.7 °F -6.0 °F 35% 30.52 in 10.0 mi WNW 8.1 mph - N/A   Clear
10:53 PM 18.0 °F 4.8 °F -6.0 °F 35% 30.54 in 10.0 mi WNW 12.7 mph - N/A   Clear
11:53 PM 19.0 °F 12.3 °F -9.0 °F 29% 30.55 in 10.0 mi WNW 4.6 mph - N/A   Clear